Pagina principale
METAR-TAF:

METAR-TAF

Aeroporti :

Pian Rosa, Italia

latitudine: 45-56N, longitudine: 007-42E, altezza: 3480 m

Osservazione

Il bollettino è stato emesso 1 ora e 18 minuti fa, alle 16:55 UTC
Vento 4 kt da sud-ovest, variando fra sud/sud-ovest e ovest/nord-ovest
Temperature -1°C
Umidità 74%
Pressione 1023 hPa

METAR: LIMH 131655Z AUTO 23004KT 210V290 //// M01/M05 Q1023

Ora: 20:13 (18:13 UTC)


TAF: mancante

Osservazioni e previsioni meteorologiche di più di 4000 aeroporti (messaggi METAR e TAF).

Le stazioni disponibili sono rappresentate dai dischi gialli e rossi sulla carta.

Puntare il mouse per vedere il nome della stazione.

Clicca sopra per visualizzare le osservazioni e previsioni meteorologiche.

Per cambiare la mappa : fare clic sui pulsanti verdi con una croce nera per ingrandire, il pulsante verde con un trattino per diminuire, o sulla freccia verde per le mappe adiacenti.


METAR-TAF: